{"data":{"norad_id":58956,"intl_designator":"2024-028B","name":"RAPTOR4","alt_names":[],"object_type":"PAYLOAD","status":"ACTIVE","operator":null,"country":"US","launch_date":"2024-02-14","launch_site_code":"AFETR","launch_vehicle":null,"mission":null,"orbit_class":"UNKNOWN","rcs_meters":null,"size_class":null,"mass_kg":null,"dimensions":null,"purposes":[],"wikipedia_slug":null,"has_3d_model":false,"image_url":null,"decayed_at":null,"tle_current":{"epoch":"2026-05-24T07:11:07.446336Z","epoch_age_seconds":132767,"freshness":"FRESH","line1":"1 58956U 24028B   26144.29939174 -.00000051  00000+0  30041-4 0  9998","line2":"2 58956  39.9871 154.1785 0013971 103.8852 256.3450 13.70381007113775","mean_motion":13.70381007,"eccentricity":0.0013971,"inclination_deg":39.9871,"raan_deg":154.1785,"arg_perigee_deg":103.8852,"mean_anomaly_deg":256.345,"bstar":3.0041e-5,"rev_number":11377,"period_min":105.08026546226,"perigee_km":987.89798217536,"apogee_km":1008.5089527095,"semimajor_km":7376.3404674424,"source":"CELESTRAK","updated_at":"2026-05-25T13:38:01.087543Z"}}}